User: anonymous
Location: Clinton NY
(43.0598°N, 75.3602°W)
Time: 03:25:25
(UTC-04:00)
Language:

Iridium 42 - Orbit

View from above orbital plane
View from above orbital plane
View from above satellite
View from above satellite

Ground track
Ground track

The orbit data is extracted from the following two-line orbital elements,

1 25077U 97077A   14258.41600490  .00000221  00000-0  71958-4 0  9499
2 25077 086.3922 082.4054 0002070 106.6479 253.4944 14.34228265878010
Epoch (UTC): 15 September 2014 09:59:02
Eccentricity: 0.0002070
inclination: 86.3922°
perigee height: 776 km
apogee height: 779 km
right ascension of ascending node: 82.4054°
argument of perigee: 106.6479°
revolutions per day: 14.34228265
mean anomaly at epoch: 253.4944°
orbit number at epoch: 87801

The dashed part of the orbit path shows where the satellite is in the earth's shadow,  

DLR